www.pogodaiklimat.ru

Погода и климат >> Архив погоды >> Россия >> Ямало-Ненецкий АО >> Лонг-Юган


ПОГОДА в Лонг-Югане

  • Прогноз погоды в Лонг-Югане
  • Монитор погоды в Лонг-Югане

АРХИВ ПОГОДЫ в Лонг-Югане

Время (UTC), дата Ветер
(напр.,м/с)
 
Видим.   Явления Облачность Т
(С)
Тd
(С)
f
(%)
Тe
(С)
Тes
(С)
Комфортность P
(гПа)
Po
(гПа)
Тmin
(С)
Tmax
(С)
R
(мм)
R24
(мм)
S
(см)
00 12.07 Ю 2 н/о н/о +14.8 +12.3 85 +14 +14 1005.2 998.6
03 12.07 ЮЗ 2 н/о н/о +19.5 +13.7 69 +22 +22 комфорт 1006.5 1000.0 +13.3
06 12.07 ЮЗ 4
{10}
н/о н/о +22.7 +12.4 52 +25 +25 комфорт 1007.9 1001.4
09 12.07 ЮЗ 4
{10}
н/о н/о +22.6 +12.1 51 +25 +25 комфорт 1009.2 1002.7
21 12.07 ЮЗ 1 н/о н/о +11.0 +9.6 91 +11 +11 1015.2 1008.4
00 13.07 СЗ 1 н/о н/о +13.9 +9.9 77 +14 +14 1016.5 1009.8
03 13.07 СЗ 1 н/о н/о +19.3 +9.4 53 +21 +21 комфорт 1018.0 1011.4 +9.8
06 13.07 З 2 н/о н/о +22.3 +10.0 46 +24 +24 комфорт 1018.2 1011.7
09 13.07 СЗ 1 н/о н/о +23.2 +9.0 40 +25 +25 комфорт 1018.5 1012.0
12 13.07 В 1 н/о н/о +22.7 +8.0 39 +24 +24 комфорт 1018.3 1011.8
15 13.07 В 1 н/о н/о +20.5 +11.3 56 +23 +23 комфорт 1017.8 1011.2 +23.9
18 13.07 В 2 н/о н/о +17.6 +12.3 71 +18 +18 1017.9 1011.2
21 13.07 ЮВ 2 н/о н/о +16.6 +11.3 71 +17 +17 1016.5 1009.8
00 14.07 ЮВ 3 н/о н/о +18.4 +11.7 65 +19 +19 1013.7 1007.1
03 14.07 Ю 4
{10}
н/о н/о +22.5 +14.6 61 +26 +26 жарко 1011.7 1005.2 +16.5
06 14.07 Ю 4
{11}
н/о н/о +28.7 +17.5 51 +33 +33 очень
душно
1010.8 1004.4
09 14.07 Ю 5
{10}
н/о н/о +30.0 +17.4 47 +34 +34 очень
душно
1009.8 1003.5
12 14.07 Ю 3
{11}
н/о н/о +32.3 +13.8 33 +34 +34 душно 1009.4 1003.1
15 14.07 Ю 3 н/о н/о +30.2 +13.6 36 +32 +32 жарко 1008.9 1002.6 +32.4
18 14.07 Ю 2 н/о н/о +26.2 +15.3 51 +29 +29 жарко 1009.0 1002.6
21 14.07 Ю 3 н/о н/о +23.0 +16.7 68 +28 +28 душно 1009.0 1002.5
00 15.07 Ю 3 н/о н/о +23.9 +18.4 71 +28 +28 душно 1009.0 1002.6
03 15.07 Ю 3 н/о н/о +27.7 +18.4 57 +33 +33 очень
душно
1008.8 1002.4 +22.3
06 15.07 Ю 4
{11}
н/о н/о +30.3 +16.8 44 +34 +34 очень
душно
1008.5 1002.2
09 15.07 Ю 3
{10}
н/о н/о +32.3 +14.5 34 +34 +34 душно 1008.4 1002.2
12 15.07 Ю 2
{10}
н/о н/о +31.5 +12.9 32 +32 +32 жарко 1008.9 1002.6
15 15.07 ЮВ 1 н/о н/о +29.4 +16.3 45 +33 +33 душно 1009.0 1002.7 +33.3
18 15.07 Ю 1 н/о н/о +23.7 +17.3 67 +28 +28 душно 1009.9 1003.4
21 15.07 ЮВ 1 н/о н/о +18.5 +18.0 97 +20 +20 1010.3 1003.7
00 16.07 С 1 н/о н/о +19.2 +18.4 95 +22 +22 комфорт 1011.0 1004.4
03 16.07 СВ 2 н/о н/о +24.0 +19.9 78 +29 +29 душно 1010.8 1004.4 +18.1
06 16.07 ЮВ 3 н/о н/о +31.6 +17.4 43 +36 +36 очень
душно
1009.6 1003.3
09 16.07 ЮВ 3 н/о н/о +34.0 +12.0 26 +34 +34 очень
жарко
1009.0 1002.7
12 16.07 В 2 н/о н/о +34.3 +12.6 27 +35 +35 очень
жарко
1008.3 1002.1
15 16.07 В 1 н/о н/о +27.5 +17.6 55 +32 +32 очень
душно
1008.4 1002.0 +34.8
18 16.07 В 1 н/о н/о +23.4 +19.4 78 +30 +30 очень
душно
1008.2 1001.8
21 16.07 В 1 н/о н/о +22.3 +19.0 82 +28 +28 душно 1007.9 1001.4
00 17.07 В 1 н/о н/о +22.1 +19.2 84 +28 +28 душно 1008.3 1001.8
03 17.07 В 1 н/о н/о +24.6 +19.2 72 +30 +30 очень
душно
1008.5 1002.1 +21.5
06 17.07 В 3 н/о н/о +29.5 +17.0 47 +33 +33 душно 1007.7 1001.4
09 17.07 В 3 н/о н/о +30.4 +15.2 40 +33 +33 душно 1007.3 1001.0
12 17.07 З 1 н/о н/о +25.9 +19.8 69 +32 +32 очень
душно
1007.4 1001.1
15 17.07 С 1 н/о н/о +23.1 +20.3 84 +30 +30 очень
душно
1007.4 1001.0 +31.2
18 17.07 СВ 1 н/о н/о +21.6 +19.6 88 +27 +27 душно 1007.1 1000.6

 

Местоположение метеостанции Лонг-Юган (Ямало-Ненецкий АО, Россия): широта 64.77 долгота 70.95 высота над уровнем моря 62 м.

В архиве по умолчанию представлена погода в Лонг-Югане за последнюю неделю. Архивные данные за месяц целиком и за предыдущие месяцы, начиная с января 2011 года, Вы можете получить, выбрав интересующий диапазон дат из раскрывающегося списка и нажав кнопку "Ввод!".


*Определитесь, кто Вы:
робот инопланетянин человек

Внимание! Время в таблицах - всемирное. Для получения местного времени необходимо прибавить поправку, которая равна 5 ч.

Смотрите также архив погоды в соседних городах и на ближайших метеорологических станциях:

Погода в Надыме (Ямало-Ненецкий АО, Россия) (112 км)
Погода в Юильске (Ханты-Мансийский АО, Россия) (139 км)
Погода в Полуе (Ямало-Ненецкий АО, Россия) (175 км)
Погода в Пангодах (Ямало-Ненецкий АО, Россия) (203 км)
Погода в Казым-Мысе (Ханты-Мансийский АО, Россия) (214 км)
Погода в Казыме (Ханты-Мансийский АО, Россия) (214 км)
Погода в Ныде (Ямало-Ненецкий АО, Россия) (226 км)
Погода в Нижнесортымском (Ханты-Мансийский АО, Россия) (227 км)
Погода в Питляре (Ямало-Ненецкий АО, Россия) (261 км)
Погода в Белоярске (Ямало-Ненецкий АО, Россия) (267 км)

Пояснения к столбцам:

Ветер - указаны скорость ветра в м/с - средняя за 10 мин, порывы в срок и между сроками (в фигурных скобках) и направление, откуда дует ветер: С - северный, СВ - северо-восточный, В - восточный, ЮВ - юго-восточный, Ю - южный, ЮЗ - юго-западный, З - западный, СЗ - северо-западный.
Видимость - горизонтальная дальность видимости в метрах или километрах. При видимости от 1 до 10 км при отсутствии осадков обычно наблюдается дымка, при ухудшении видимости до 1 км и менее - туман. В сухую погоду видимость может ухудшаться дымом, пылью или мглою.
Явления - указаны атмосферные явления, наблюдавшиеся в срок или в последний час перед сроком; фигурными скобками обозначены явления, наблюдавшиеся между сроками (за 1-3 часа до срока); квадратными скобками обозначены град или гололедные отложения с указанием их диаметра в мм.
Облачность - указаны через наклонную черту общая и нижняя облачность в баллах и высота нижней границы облаков в метрах; квадратными скобками обозначены формы облаков: Ci - перистые, Cs - перисто-слоистые, Cc - перисто-кучевые, Ac - высококучевые, As - высокослоистые, Sc - слоисто-кучевые, Ns - слоисто-дождевые, Cu - кучевые, Cb - кучево-дождевые. Подробнее классификацию облаков см. в Атласе облаков (PDF).
T - Температура воздуха - температура, измеренная на высоте 2 м над землей.
Td - Температура точки росы - температура, при понижении до которой содержащийся в воздухе водяной пар достигнет насыщения.
f - Относительная влажность воздуха - влажноcть воздуха, измеренная на высоте 2 м над землей.
Te - Эффективная температура - температура, которую ощущает одетый по сезону человек в тени. Характеристика душности погоды. При расчете учитывается влияние влажности воздуха и скорости ветра на теплоощущения человека.
Tes - Эффективная температура на солнце - температура, которую ощущает человек, с поправкой на солнечный нагрев. Характеристика знойности погоды. Зависит от высоты солнца над горизонтом, облачности и скорости ветра. Ночью, в пасмурную погоду, а также при ветре 12 м/с и более поправка равна нулю.
P - Атмосферное давление - приведенное к уровню моря атмосферное давление.
Po - Атмосферное давление - измеренное на уровне метеостанции атмосферное давление.
Tmin - Минимальная температура - минимум температуры воздуха на высоте 2 м над землей.
Tmax - Максимальная температура - максимум температуры воздуха на высоте 2 м над землей.
R - Количество осадков - Количество выпавших осадков за период времени, мм. При наведении курсора мыши на число - период времени, за который выпало указанное количество осадков.
R24 - Количество осадков - Количество выпавших осадков за 24 часа, мм.
S - Снежный покров - Высота снежного покрова, см. При наведении курсора мыши на число - состояние снежного покрова и степень покрытия местности в баллах.